Explorer - northwestern half: Past 24 Hour Conditions

 

Sheringham Point

09:00 AM PDT 29 July 2014
This table is a summary of hourly weather conditions for the past 24 hours.
Date / Time
(PDT)
Wind(knots) Conditions Visibility(km) Pressure(kPa) Air tempC) Relative humidity(%) Dew pointC)
29 July 2014
9:00 WNW 14 N/A N/A 102.1 12 99 12
8:00 WNW 12 N/A N/A 102.1 11 99 11
7:00 WNW 5 N/A N/A 102.1 12 100 12
6:00 WNW 8 N/A N/A 102.0 11 100 11
5:00 WNW 10 N/A N/A 102.0 11 100 11
4:00 WNW 13 N/A N/A 102.0 11 100 11
3:00 WNW 12 gust 17 N/A N/A 102.0 11 99 11
2:00 WNW 14 gust 19 N/A N/A 102.0 11 99 11
1:00 WNW 15 N/A N/A 102.0 11 100 11
0:00 WNW 12 N/A N/A 102.0 11 100 11
28 July 2014
23:00 W 17 N/A N/A 102.0 11 100 11
22:00 WNW 21 N/A N/A 101.9 12 100 11
21:00 WNW 21 N/A N/A 101.9 11 100 11
20:00 WNW 22 N/A N/A 101.9 11 99 11
19:00 WNW 20 N/A N/A 101.9 12 99 11
18:00 WNW 23 N/A N/A 101.9 12 99 12
17:00 WNW 24 N/A N/A 101.9 11 100 11
16:00 WNW 24 N/A N/A 101.9 11 98 11
15:00 WNW 20 N/A N/A 102.0 12 96 11
14:00 WNW 15 N/A N/A 102.0 12 94 11
13:00 WNW 14 N/A N/A 102.0 12 95 11
12:00 WNW 10 N/A N/A 102.0 13 92 11
11:00 WNW 15 N/A N/A 102.0 12 95 11
10:00 WNW 9 N/A N/A 102.0 11 98 11
9:00 WNW 6 N/A N/A 102.1 11 99 10
 
Map of Pacific - South Coast marine weather areas Tsawwassen Ferry Terminal South Nomad - 46036 Sentry Shoal - 46131 South Brooks - 46132 Halibut Bank - 46146 South Moresby - 46147 South Hecate Strait - 46185 West Sea Otter - 46204 La Perouse Bank - 46206 East Dellwood - 46207 Discovery Island Esquimalt Harbour Kelp Reefs Malahat Race Rocks Lightstation Saturna Island Sheringham Point University of Victoria Victoria Gonzales Victoria Int'l Airport Ballenas Islands Campbell River Airport Comox Airport Entrance Island Fanny Island Nanaimo Airport Port Hardy Airport Sisters Islets Estevan Point Sartine Island Solander Island Tofino Airport Grief Point Powell River Airport Sechelt Cape St.James Bella Bella Airport Bella Coola Airport Cathedral Point Herbert Island Point Atkinson Sand Heads Lightstation Vancouver Harbour Vancouver Int'l Airport West Vancouver Port Alberni Howe Sound - Pam Rocks Squamish Airport